DW1449 Weather Reports


Display with metric or nautical units.
time (UTC)temp
F
wind
direction
speed
MPH
gust
MPH
rain 1hr
in
rain 24hr
in
rain mn
in
humidity
%
barometer
mb
20260507183532 50 0.0 0.0 0.00 0.00 0.00 62 1019.2
20260507183045 50 0.0 0.0 0.00 0.00 0.00 62 1019.3
20260507182532 50 0.0 0.0 0.00 0.00 0.00 61 1019.2
20260507182032 50 0.0 0.0 0.00 0.00 0.00 61 1019.1
20260507181541 50 0.0 0.0 0.00 0.00 0.00 60 1019.1
20260507181035 51 0.0 0.0 0.00 0.00 0.00 61 1019.1
20260507180535 51 0.0 0.0 0.00 0.00 0.00 62 1019.1
20260507180042 51 0.0 0.0 0.00 0.00 0.00 62 1018.9
20260507175535 51 0.0 0.0 0.00 0.00 0.00 63 1018.9
20260507175035 52 0.0 0.0 0.00 0.00 0.00 62 1019.0
20260507174552 52 0.0 0.0 0.00 0.00 0.00 61 1018.7
20260507174034 52 0.0 0.0 0.00 0.00 0.00 60 1018.7
20260507173536 52 0.0 0.0 0.00 0.00 0.00 60 1018.6
20260507173118 52 0.0 0.0 0.00 0.00 0.00 60 1018.5
20260507172535 53 0.0 0.0 0.00 0.00 0.00 59 1018.5
20260507172035 53 0.0 0.0 0.00 0.00 0.00 60 1018.3
20260507171554 53 0.0 0.0 0.00 0.00 0.00 60 1018.3
20260507171035 53 0.0 0.0 0.00 0.00 0.00 59 1018.3
20260507170536 53 0.0 0.0 0.00 0.00 0.00 58 1018.1
20260507170058 54 0.0 0.0 0.00 0.00 0.00 56 1018.1
20260507165536 54 0.0 0.0 0.00 0.00 0.00 54 1018.0
20260507165036 54 0.0 0.0 0.00 0.00 0.00 51 1017.9
20260507164550 54 0.0 0.0 0.00 0.00 0.00 50 1017.8
20260507164034 54 0.0 0.0 0.00 0.00 0.00 46 1017.9
20260507163534 54 0.0 0.0 0.00 0.00 0.00 44 1018.0
20260507163047 55 0.0 0.0 0.00 0.00 0.00 39 1018.0
20260507162535 55 0.0 0.0 0.00 0.00 0.00 39 1017.8
20260507162035 55 0.0 0.0 0.00 0.00 0.00 40 1018.0
20260507161558 55 0.0 0.0 0.00 0.00 0.00 37 1017.9
20260507161036 55 0.0 0.0 0.00 0.00 0.00 34 1017.8
20260507160533 55 0.0 0.0 0.00 0.00 0.00 36 1017.9
20260507160042 55 0.0 0.0 0.00 0.00 0.00 34 1017.8
20260507155532 55 0.0 0.0 0.00 0.00 0.00 33 1017.9
20260507155035 55 0.0 0.0 0.00 0.00 0.00 33 1018.0
20260507154549 55 0.0 0.0 0.00 0.00 0.00 33 1017.9
20260507154033 55 0.0 0.0 0.00 0.00 0.00 35 1017.8
20260507153535 55 0.0 0.0 0.00 0.00 0.00 34 1017.8
20260507153055 55 0.0 0.0 0.00 0.00 0.00 34 1017.9
20260507152539 55 0.0 0.0 0.00 0.00 0.00 35 1017.9
20260507152035 55 0.0 0.0 0.00 0.00 0.00 35 1017.8
20260507151543 55 0.0 0.0 0.00 0.00 0.00 39 1017.7
20260507151038 56 0.0 0.0 0.00 0.00 0.00 42 1017.7
20260507150535 55 0.0 0.0 0.00 0.00 0.00 41 1017.8
20260507150044 56 0.0 0.0 0.00 0.00 0.00 42 1017.6
20260507145536 56 0.0 0.0 0.00 0.00 0.00 42 1017.9
20260507145118 56 0.0 0.0 0.00 0.00 0.00 45 1017.7
20260507144551 56 0.0 0.0 0.00 0.00 0.00 44 1017.7
20260507144037 56 0.0 0.0 0.00 0.00 0.00 45 1017.6
20260507143535 56 0.0 0.0 0.00 0.00 0.00 43 1017.7
20260507143049 56 0.0 0.0 0.00 0.00 0.00 44 1017.6
20260507142535 56 0.0 0.0 0.00 0.00 0.00 42 1017.7
20260507142034 56 0.0 0.0 0.00 0.00 0.00 42 1017.8
20260507141602 56 0.0 0.0 0.00 0.00 0.00 44 1017.7
20260507141039 56 0.0 0.0 0.00 0.00 0.00 43 1017.8
20260507140535 56 0.0 0.0 0.00 0.00 0.00 47 1017.7
20260507140053 56 0.0 0.0 0.00 0.00 0.00 45 1017.7
20260507135535 56 0.0 0.0 0.00 0.00 0.00 45 1017.8
20260507135035 56 0.0 0.0 0.00 0.00 0.00 45 1017.7
20260507134542 56 0.0 0.0 0.00 0.00 0.00 45 1017.8
20260507134033 56 0.0 0.0 0.00 0.00 0.00 47 1017.8
20260507133535 56 0.0 0.0 0.00 0.00 0.00 43 1017.8
20260507133049 56 0.0 0.0 0.00 0.00 0.00 47 1017.7
20260507132535 56 0.0 0.0 0.00 0.00 0.00 48 1017.9
20260507132035 56 0.0 0.0 0.00 0.00 0.00 45 1017.7
20260507131548 56 0.0 0.0 0.00 0.00 0.00 42 1017.6
20260507131036 56 0.0 0.0 0.00 0.00 0.00 50 1017.7
20260507130535 56 0.0 0.0 0.00 0.00 0.00 51 1017.6
20260507130048 56 0.0 0.0 0.00 0.00 0.00 48 1017.4
20260507125536 56 0.0 0.0 0.00 0.00 0.00 50 1017.6
20260507125037 56 0.0 0.0 0.00 0.00 0.00 49 1017.6
20260507124547 56 0.0 0.0 0.00 0.00 0.00 47 1017.5
20260507124035 56 0.0 0.0 0.00 0.00 0.00 53 1017.5
20260507123535 56 0.0 0.0 0.00 0.00 0.00 50 1017.5
20260507123050 56 0.0 0.0 0.00 0.00 0.00 48 1017.5
20260507122535 56 0.0 0.0 0.00 0.00 0.00 47 1017.4
20260507122035 56 0.0 0.0 0.00 0.00 0.00 51 1017.4
20260507121549 56 0.0 0.0 0.00 0.00 0.00 49 1017.5
20260507121035 56 0.0 0.0 0.00 0.00 0.00 52 1017.5
20260507120535 56 0.0 0.0 0.00 0.00 0.00 49 1017.4
20260507120050 56 0.0 0.0 0.00 0.00 0.00 50 1017.4
20260507115535 55 0.0 0.0 0.00 0.00 0.00 50 1017.4
20260507115037 55 0.0 0.0 0.00 0.00 0.00 49 1017.5
20260507114542 56 0.0 0.0 0.00 0.00 0.00 49 1017.3
20260507114034 56 0.0 0.0 0.00 0.00 0.00 47 1017.4
20260507113537 55 0.0 0.0 0.00 0.00 0.00 48 1017.4
20260507113051 56 0.0 0.0 0.00 0.00 0.00 49 1017.3
20260507112534 55 0.0 0.0 0.00 0.00 0.00 50 1017.3
20260507112032 55 0.0 0.0 0.00 0.00 0.00 49 1017.2
20260507111540 56 0.0 0.0 0.00 0.00 0.00 54 1017.3
20260507111032 55 0.0 0.0 0.00 0.00 0.00 53 1017.3
20260507110534 55 0.0 0.0 0.00 0.00 0.00 56 1017.3
20260507110044 55 0.0 0.0 0.00 0.00 0.00 52 1017.3
20260507105534 55 0.0 0.0 0.00 0.00 0.00 56 1017.4
20260507105035 55 0.0 0.0 0.00 0.00 0.00 59 1017.2
20260507104542 54 0.0 0.0 0.00 0.00 0.00 58 1017.3
20260507104035 55 0.0 0.0 0.00 0.00 0.00 56 1017.2
20260507103535 55 0.0 0.0 0.00 0.00 0.00 57 1017.3
20260507103043 55 0.0 0.0 0.00 0.00 0.00 57 1017.3
20260507102536 55 0.0 0.0 0.00 0.00 0.00 57 1017.3
20260507102036 54 0.0 0.0 0.00 0.00 0.00 57 1017.1
20260507101537 54 0.0 0.0 0.00 0.00 0.00 57 1017.2
20260507101037 54 0.0 0.0 0.00 0.00 0.00 64 1017.1
20260507100540 54 0.0 0.0 0.00 0.00 0.00 61 1017.1
20260507100041 54 0.0 0.0 0.00 0.00 0.00 63 1017.1
20260507095536 54 0.0 0.0 0.00 0.00 0.00 61 1017.1
20260507095034 54 0.0 0.0 0.00 0.00 0.00 65 1017.1
20260507094550 54 0.0 0.0 0.00 0.00 0.00 63 1017.1
20260507094035 54 0.0 0.0 0.00 0.00 0.00 67 1017.1
20260507093535 53 0.0 0.0 0.00 0.00 0.00 63 1017.0
20260507093042 54 0.0 0.0 0.00 0.00 0.00 66 1016.8
20260507092535 53 0.0 0.0 0.00 0.00 0.00 66 1017.0
20260507092035 53 0.0 0.0 0.00 0.00 0.00 67 1016.9
20260507091545 53 0.0 0.0 0.00 0.00 0.00 68 1016.8
20260507091035 53 0.0 0.0 0.00 0.00 0.00 66 1016.9
20260507090534 54 0.0 0.0 0.00 0.00 0.00 70 1016.9
20260507090047 52 0.0 0.0 0.00 0.00 0.00 70 1016.9
20260507085536 52 0.0 0.0 0.00 0.00 0.00 70 1016.9
20260507085035 52 0.0 0.0 0.00 0.00 0.00 70 1016.9
20260507084548 52 0.0 0.0 0.00 0.00 0.00 73 1016.9
20260507084035 52 0.0 0.0 0.00 0.00 0.00 71 1016.8
20260507083535 52 0.0 0.0 0.00 0.00 0.00 70 1016.8
20260507083048 52 0.0 0.0 0.00 0.00 0.00 73 1016.8
20260507082536 52 0.0 0.0 0.00 0.00 0.00 73 1016.7
20260507082035 51 0.0 0.0 0.00 0.00 0.00 73 1016.7
20260507081550 51 0.0 0.0 0.00 0.00 0.00 74 1016.7
20260507081035 51 0.0 0.0 0.00 0.00 0.00 72 1016.6
20260507080535 51 0.0 0.0 0.00 0.00 0.00 74 1016.5
20260507080053 51 0.0 0.0 0.00 0.00 0.00 75 1016.7
20260507075535 51 0.0 0.0 0.00 0.00 0.00 75 1016.7
20260507075035 51 0.0 0.0 0.00 0.00 0.00 77 1016.5
20260507074550 50 0.0 0.0 0.00 0.00 0.00 77 1016.6
20260507074033 50 0.0 0.0 0.00 0.00 0.00 76 1016.6
20260507073535 50 0.0 0.0 0.00 0.00 0.00 77 1016.5
20260507073057 50 0.0 0.0 0.00 0.00 0.00 77 1016.6
20260507072535 49 0.0 0.0 0.00 0.00 0.00 77 1016.5
20260507072035 49 0.0 0.0 0.00 0.00 0.00 77 1016.5
20260507071542 49 0.0 0.0 0.00 0.00 0.00 76 1016.6
20260507071035 49 0.0 0.0 0.00 0.00 0.00 74 1016.5
20260507070535 48 0.0 0.0 0.00 0.00 0.00 74 1016.5
20260507070051 48 0.0 0.0 0.00 0.00 0.00 74 1016.4
20260507065536 48 0.0 0.0 0.00 0.00 0.00 74 1016.4
20260507065035 47 0.0 0.0 0.00 0.00 0.00 75 1016.4
20260507064548 47 0.0 0.0 0.00 0.00 0.00 75 1016.3
20260507064036 47 0.0 0.0 0.00 0.00 0.00 75 1016.3
20260507063536 47 0.0 0.0 0.00 0.00 0.00 80 1016.4
20260507063056 47 0.0 0.0 0.00 0.00 0.00 83 1016.4
20260507062535 46 0.0 0.0 0.00 0.00 0.00 83 1016.5
20260507062035 46 0.0 0.0 0.00 0.00 0.00 85 1016.3
20260507061546 45 0.0 0.0 0.00 0.00 0.00 86 1016.3
20260507061036 45 0.0 0.0 0.00 0.00 0.00 88 1016.4
20260507060535 45 0.0 0.0 0.00 0.00 0.00 90 1016.3
20260507060046 44 0.0 0.0 0.00 0.00 0.00 91 1016.1
20260507055532 44 0.0 0.0 0.00 0.00 0.00 92 1016.3
20260507055034 43 0.0 0.0 0.00 0.00 0.00 92 1016.2
20260507054544 43 0.0 0.0 0.00 0.00 0.00 92 1016.2
20260507054035 43 0.0 0.0 0.00 0.00 0.00 93 1016.1
20260507053532 42 0.0 0.0 0.00 0.00 0.00 93 1016.2
20260507053050 42 0.0 0.0 0.00 0.00 0.00 93 1016.1
20260507052534 42 0.0 0.0 0.00 0.00 0.00 93 1016.0
20260507052035 41 0.0 0.0 0.00 0.00 0.00 93 1016.0
20260507051542 41 0.0 0.0 0.00 0.00 0.00 93 1016.1
20260507051039 41 0.0 0.0 0.00 0.00 0.00 93 1016.0
20260507050536 41 0.0 0.0 0.00 0.00 0.00 93 1015.9
20260507050053 40 0.0 0.0 0.00 0.00 0.00 93 1015.9
20260507045535 40 0.0 0.0 0.00 0.00 0.00 93 1015.7
20260507045035 39 0.0 0.0 0.00 0.00 0.00 93 1015.9
20260507044546 39 0.0 0.0 0.00 0.00 0.00 93 1015.8
20260507044038 38 0.0 0.0 0.00 0.00 0.00 93 1015.8
20260507043535 38 0.0 0.0 0.00 0.00 0.00 92 1015.9
20260507043047 37 0.0 0.0 0.00 0.00 0.00 92 1015.7
20260507042535 37 0.0 0.0 0.00 0.00 0.00 93 1015.8
20260507042036 37 0.0 0.0 0.00 0.00 0.00 92 1015.7
20260507041547 37 0.0 0.0 0.00 0.00 0.00 92 1015.7
20260507041032 36 0.0 0.0 0.00 0.00 0.00 92 1015.8
20260507040534 36 0.0 0.0 0.00 0.00 0.00 92 1015.6
20260507040103 36 0.0 0.0 0.00 0.00 0.00 92 1015.5
20260507035534 36 0.0 0.0 0.00 0.00 0.00 92 1015.5
20260507035034 36 0.0 0.0 0.00 0.00 0.00 92 1015.6
20260507034602 36 0.0 0.0 0.00 0.00 0.00 92 1015.5
20260507034034 36 0.0 0.0 0.00 0.00 0.00 92 1015.5
20260507033533 36 0.0 0.0 0.00 0.00 0.00 91 1015.5
20260507033102 36 0.0 0.0 0.00 0.00 0.00 92 1015.5
20260507032537 36 0.0 0.0 0.00 0.00 0.00 91 1015.4
20260507032035 36 0.0 0.0 0.00 0.00 0.00 92 1015.4
20260507031545 36 0.0 0.0 0.00 0.00 0.00 91 1015.3
20260507031035 35 0.0 0.0 0.00 0.00 0.00 91 1015.4
20260507030538 35 0.0 0.0 0.00 0.00 0.00 91 1015.3
20260507030043 35 0.0 0.0 0.00 0.00 0.00 91 1015.3
20260507025535 35 0.0 0.0 0.00 0.00 0.00 91 1015.3
20260507025035 35 0.0 0.0 0.00 0.00 0.00 91 1015.3
20260507024552 35 0.0 0.0 0.00 0.00 0.00 91 1015.2
20260507024034 35 0.0 0.0 0.00 0.00 0.00 91 1015.1
20260507023538 35 0.0 0.0 0.00 0.00 0.00 91 1015.1
20260507023040 35 0.0 0.0 0.00 0.00 0.00 90 1015.1
20260507022532 35 0.0 0.0 0.00 0.00 0.00 90 1015.1
20260507022035 35 0.0 0.0 0.00 0.00 0.00 90 1015.0
20260507021550 35 0.0 0.0 0.00 0.00 0.00 90 1015.0
20260507021039 35 0.0 0.0 0.00 0.00 0.00 90 1015.0
20260507020534 35 0.0 0.0 0.00 0.00 0.00 90 1015.1
20260507020042 35 0.0 0.0 0.00 0.00 0.00 90 1015.1
20260507015534 35 0.0 0.0 0.00 0.00 0.00 89 1015.1
20260507015034 35 0.0 0.0 0.00 0.00 0.00 89 1015.0
20260507014545 36 0.0 0.0 0.00 0.00 0.00 89 1015.1
20260507014033 36 0.0 0.0 0.00 0.00 0.00 89 1014.8
20260507013532 36 0.0 0.0 0.00 0.00 0.00 89 1014.9
20260507013103 36 0.0 0.0 0.00 0.00 0.00 88 1015.0
20260507012535 36 0.0 0.0 0.00 0.00 0.00 88 1014.9
20260507012035 36 0.0 0.0 0.00 0.00 0.00 88 1014.9
20260507011552 36 0.0 0.0 0.00 0.00 0.00 88 1014.8
20260507011033 36 0.0 0.0 0.00 0.00 0.00 87 1014.9
20260507010535 36 0.0 0.0 0.00 0.00 0.00 87 1014.9
20260507010053 36 0.0 0.0 0.00 0.00 0.00 87 1014.8
20260507005534 36 0.0 0.0 0.00 0.00 0.00 87 1014.8
20260507005034 36 0.0 0.0 0.00 0.00 0.00 87 1014.8
20260507004540 36 0.0 0.0 0.00 0.00 0.00 87 1015.0
20260507004035 36 0.0 0.0 0.00 0.00 0.00 86 1015.0
20260507003535 36 0.0 0.0 0.00 0.00 0.00 86 1014.9
20260507003042 36 0.0 0.0 0.00 0.00 0.00 86 1014.9
20260507002535 36 0.0 0.0 0.00 0.00 0.00 86 1014.9
20260507002035 36 0.0 0.0 0.00 0.00 0.00 86 1014.7
20260507001604 36 0.0 0.0 0.00 0.00 0.00 86 1014.7
20260507001038 36 0.0 0.0 0.00 0.00 0.00 86 1014.9
20260507000535 36 0.0 0.0 0.00 0.00 0.00 85 1014.8
20260507000042 36 0.0 0.0 0.00 0.00 0.00 85 1014.7
20260506235535 36 0.0 0.0 0.00 0.00 0.00 85 1014.9
20260506235038 36 0.0 0.0 0.00 0.00 0.00 84 1014.8
20260506234552 36 0.0 0.0 0.00 0.00 0.00 83 1014.8
20260506234035 36 0.0 0.0 0.00 0.00 0.00 83 1014.9
20260506233533 36 0.0 0.0 0.00 0.00 0.00 82 1014.9
20260506233047 37 0.0 0.0 0.00 0.00 0.00 81 1014.7
20260506232535 37 0.0 0.0 0.00 0.00 0.00 81 1014.9
20260506232034 36 0.0 0.0 0.00 0.00 0.00 81 1014.7
20260506231542 37 0.0 0.0 0.00 0.00 0.00 81 1014.8
20260506231034 37 0.0 0.0 0.00 0.00 0.00 81 1014.8
20260506230535 37 0.0 0.0 0.00 0.00 0.00 80 1014.9
20260506230045 37 0.0 0.0 0.00 0.00 0.00 79 1014.8
20260506225535 37 0.0 0.0 0.00 0.00 0.00 79 1014.8
20260506225040 37 0.0 0.0 0.00 0.00 0.00 78 1014.7
20260506224554 37 0.0 0.0 0.00 0.00 0.00 78 1014.9
20260506224035 38 0.0 0.0 0.00 0.00 0.00 77 1015.0
20260506223536 38 0.0 0.0 0.00 0.00 0.00 76 1014.8
20260506223054 38 0.0 0.0 0.00 0.00 0.00 74 1014.7
20260506222539 39 0.0 0.0 0.00 0.00 0.00 74 1014.6
20260506222036 38 0.0 0.0 0.00 0.00 0.00 74 1014.7
20260506221542 38 0.0 0.0 0.00 0.00 0.00 75 1014.6
20260506221035 39 0.0 0.0 0.00 0.00 0.00 75 1014.5
20260506220535 39 0.0 0.0 0.00 0.00 0.00 75 1014.5
20260506215535 39 0.0 0.0 0.00 0.00 0.00 75 1014.4
20260506215035 39 0.0 0.0 0.00 0.00 0.00 74 1014.4
20260506214545 39 0.0 0.0 0.00 0.00 0.00 74 1014.5
20260506214036 39 0.0 0.0 0.00 0.00 0.00 73 1014.3
20260506213536 40 0.0 0.0 0.00 0.00 0.00 72 1014.3
20260506213053 41 0.0 0.0 0.00 0.00 0.00 69 1014.2
20260506212536 41 0.0 0.0 0.00 0.00 0.00 68 1014.3
20260506212035 41 0.0 0.0 0.00 0.00 0.00 66 1014.2
20260506211556 41 0.0 0.0 0.00 0.00 0.00 68 1014.1
20260506211037 42 0.0 0.0 0.00 0.00 0.00 68 1014.0
20260506210535 42 0.0 0.0 0.00 0.00 0.00 67 1014.2
20260506210050 42 0.0 0.0 0.00 0.00 0.00 67 1014.0
20260506205538 42 0.0 0.0 0.00 0.00 0.00 66 1014.1
20260506205037 42 0.0 0.0 0.00 0.00 0.00 67 1014.1
20260506204546 42 0.0 0.0 0.00 0.00 0.00 67 1014.0
20260506204036 42 0.0 0.0 0.00 0.00 0.00 67 1014.1
20260506203535 42 0.0 0.0 0.00 0.00 0.00 67 1014.1
20260506203049 42 0.0 0.0 0.00 0.00 0.00 67 1014.2
20260506202537 42 0.0 0.0 0.00 0.00 0.00 68 1014.2
20260506202036 42 0.0 0.0 0.00 0.00 0.00 68 1014.1
20260506201549 42 0.0 0.0 0.00 0.00 0.00 68 1014.2
20260506201035 42 0.0 0.0 0.00 0.00 0.00 68 1014.1
20260506200534 42 0.0 0.0 0.00 0.00 0.00 67 1014.0
20260506200051 42 0.0 0.0 0.00 0.00 0.00 66 1014.1
20260506195536 43 0.0 0.0 0.00 0.00 0.00 66 1014.0
20260506195035 43 0.0 0.0 0.00 0.00 0.00 65 1014.0
20260506194553 43 0.0 0.0 0.00 0.00 0.00 66 1014.0
20260506194037 43 0.0 0.0 0.00 0.00 0.00 66 1013.9
20260506193534 44 0.0 0.0 0.00 0.00 0.00 65 1014.2
20260506193052 45 0.0 0.0 0.00 0.00 0.00 64 1013.9
20260506192534 45 0.0 0.0 0.00 0.00 0.00 62 1013.8
20260506192037 46 0.0 0.0 0.00 0.00 0.00 60 1013.8
20260506191541 46 0.0 0.0 0.00 0.00 0.00 58 1013.8
20260506191037 47 0.0 0.0 0.00 0.00 0.00 57 1013.8
20260506190534 47 0.0 0.0 0.00 0.00 0.00 57 1013.7
20260506190045 48 0.0 0.0 0.00 0.00 0.00 56 1013.7
20260506185535 48 0.0 0.0 0.00 0.00 0.00 56 1013.6
20260506185035 48 0.0 0.0 0.00 0.00 0.00 55 1013.4
20260506184543 49 0.0 0.0 0.00 0.00 0.00 55 1013.4
20260506184035 49 0.0 0.0 0.00 0.00 0.00 54 1013.4